Home > Weather > Inglewood > Past weeks

Flag for U.S.A. Weather for the Past 2 Weeks in Inglewood, California, U.S.A.

Now
67 °F

Clear.


Feels Like: 67 °F
Forecast: 49 / 75 °F
Wind: No wind

Location: Hawthorne Municipal Airport

Current Time: Feb 5, 2016 at 7:46:30 PM

Latest Report: Feb 5, 2016 at 6:53 PM


Visibility: 10 mi

Pressure: 30.26 "Hg

Humidity: 29%

Dew point: 33 °F

Location of InglewoodLocation

Historic Weather in Inglewood — Graph

°F

Inglewood Temperature Yesterday

Maximum temperature yesterday: 70 °F (at 1:53 PM)
Minimum temperature yesterday: 48 °F (at 3:53 AM)
Average temperature yesterday: 57 °F

High & Low Weather Summary for the Past Weeks

 TemperatureHumidityPressure
High77 °F (Feb 5, 1:53 PM)93% (Jan 21, 10:53 PM)30.37 "Hg (Jan 21, 10:53 PM)
Low43 °F (Feb 2, 5:53 AM)8% (Feb 5, 1:53 PM)29.62 "Hg (Jan 31, 3:53 PM)
Average58 °F54%30.12 "Hg
* Reported Jan 21 5:53 PM — Feb 5 5:53 PM, Inglewood, Weather by CustomWeather, © 2016

Note: Actual official high and low records may vary slightly from our data, if they occured in-between our weather recording intervals... More about our weather records

Advertising

Inglewood Weather History for the Previous 24 Hours

 ConditionsComfort  
Time TempWeatherWind HumidityBarometerVisibility
5:53 PM
Fri, Feb 5
69 °FClear.No wind23%30.25 "Hg10 mi
4:53 PM72 °FSunny.7 mph18%30.24 "Hg10 mi
3:53 PM75 °FSunny.7 mph13%30.24 "Hg10 mi
2:53 PM77 °FSunny.6 mph11%30.24 "Hg10 mi
1:53 PM77 °FSunny.No wind8%30.25 "Hg10 mi
12:53 PM76 °FSunny.5 mph10%30.28 "Hg10 mi
11:53 AM73 °FSunny.No wind12%30.31 "Hg10 mi
10:53 AM69 °FSunny.7 mph15%30.34 "Hg10 mi
9:53 AM67 °FSunny.No wind18%30.34 "Hg10 mi
8:53 AM63 °FSunny.3 mph22%30.33 "Hg10 mi
7:53 AM53 °FSunny.No wind37%30.33 "Hg10 mi
6:53 AM49 °FSunny.No wind44%30.31 "Hg10 mi
5:53 AM50 °FClear.No wind43%30.29 "Hg10 mi
4:53 AM48 °FClear.No wind52%30.28 "Hg10 mi
3:53 AM48 °FClear.No wind54%30.28 "Hg10 mi
2:53 AM49 °FClear.No wind52%30.27 "Hg10 mi
1:53 AM50 °FClear.No wind48%30.27 "Hg10 mi
12:53 AM53 °FClear.No wind43%30.27 "Hg10 mi
11:53 PM
Thu, Feb 4
52 °FClear.No wind57%30.27 "Hg10 mi
10:53 PM54 °FClear.No wind53%30.27 "Hg10 mi
9:53 PM56 °FClear.No wind62%30.26 "Hg10 mi
8:53 PM58 °FClear.No wind58%30.25 "Hg10 mi
7:53 PM59 °FClear.No wind60%30.24 "Hg10 mi
Weather by CustomWeather, © 2016

See weather overviewHow to use our weather pages